Home   Weather   Ohrid   Past weeks

Flag for Macedonia, Republic of Past Weather in Ohrid, Macedonia, Republic of — Yesterday and Last 2 Weeks

Now
63 °F

Passing clouds.


Feels Like: 63 °F
Forecast: 41 / 69 °F
Wind: 2 mph from Northwest

Location: Ohrid Airport

Current Time: Sep 28, 2016 at 10:34:47 AM

Latest Report: Sep 28, 2016 at 10:00 AM


Visibility: N/A

Pressure: 30.42 "Hg (28.03 "Hg at 696m altitude)

Humidity: 52%

Dew Point: 45 °F

Location of OhridLocation

Past Weather in Ohrid — Graph

°F

Ohrid Temperature Yesterday

Maximum temperature yesterday: 66 °F (at 3:30 PM)
Minimum temperature yesterday: 46 °F (at 5:00 AM)
Average temperature yesterday: 58 °F

High & Low Weather Summary for the Past Weeks

 TemperatureHumidityPressure
High79 °F (Sep 13, 4:00 PM)94% (Sep 14, 7:30 AM)30.39 "Hg (Sep 14, 7:30 AM)
Low39 °F (Sep 23, 7:00 AM)32% (Sep 13, 4:00 PM)29.77 "Hg (Sep 19, 2:00 PM)
Average61 °F67%30.09 "Hg
* Reported Sep 13 9:00 AM — Sep 28 9:00 AM, Ohrid, Weather by CustomWeather, © 2016

Note: Actual official high and low records may vary slightly from our data, if they occured in-between our weather recording intervals... More about our weather records

Advertising

Ohrid Weather History for the Previous 24 Hours

Scroll right to see more
 ConditionsComfort  
Time TempWeatherWind HumidityBarometerVisibility
9:00 AM
Wed, Sep 28
59 °FSunny.1 mph59%30.39 "Hg10 mi
8:30 AM54 °FSunny.3 mph67%30.39 "Hg10 mi
8:00 AM50 °FSunny.5 mph71%30.39 "Hg10 mi
7:30 AM46 °FSunny.3 mph82%30.36 "Hg10 mi
7:00 AM46 °FSunny.2 mph82%30.36 "Hg10 mi
6:30 AM46 °FSunny.3 mph82%30.36 "Hg10 mi
6:00 AM46 °FClear.3 mph82%30.36 "Hg10 mi
5:30 AM46 °FClear.5 mph76%30.33 "Hg10 mi
5:00 AM46 °FClear.5 mph82%30.33 "Hg10 mi
4:30 AM46 °FClear.3 mph82%30.33 "Hg10 mi
4:00 AM48 °FClear.3 mph76%30.33 "Hg10 mi
3:30 AM48 °FClear.3 mph76%30.33 "Hg10 mi
3:00 AM50 °FClear.5 mph76%30.33 "Hg10 mi
8:00 PM
Tue, Sep 27
55 °FPassing clouds.5 mph63%30.27 "HgN/A
7:30 PM55 °FPassing clouds.3 mph63%30.27 "HgN/A
7:00 PM59 °FPassing clouds.5 mph55%30.24 "HgN/A
6:30 PM61 °FPassing clouds.6 mph52%30.24 "HgN/A
6:00 PM64 °FScattered clouds.1 mph49%30.24 "HgN/A
5:30 PM66 °FScattered clouds.1 mph37%30.21 "HgN/A
5:00 PM66 °FScattered clouds.2 mph40%30.21 "HgN/A
4:30 PM66 °FScattered clouds.2 mph40%30.21 "HgN/A
4:00 PM66 °FScattered clouds.2 mph37%30.21 "HgN/A
3:30 PM66 °FScattered clouds.3 mph46%30.21 "HgN/A
3:00 PM64 °FScattered clouds.3 mph46%30.21 "HgN/A
2:30 PM64 °FScattered clouds.5 mph46%30.21 "HgN/A
2:00 PM63 °FScattered clouds.5 mph52%30.21 "HgN/A
1:30 PM63 °FScattered clouds.5 mph52%30.24 "HgN/A
1:00 PM63 °FScattered clouds.7 mph52%30.24 "HgN/A
12:30 PM63 °FScattered clouds.7 mph52%30.24 "HgN/A
12:00 PM63 °FScattered clouds.8 mph52%30.24 "HgN/A
11:30 AM64 °FScattered clouds.6 mph43%30.24 "HgN/A
11:00 AM63 °FScattered clouds.3 mph45%30.24 "HgN/A
10:30 AM61 °FScattered clouds.6 mph48%30.24 "HgN/A
10:00 AM57 °FScattered clouds.7 mph55%30.24 "HgN/A
Weather by CustomWeather, © 2016

See weather overviewHow to use our weather pages